Home > Weather > Arden-Arcade > Past weeks

Flag for USA Past Weather in Arden-Arcade, California, USA — Yesterday and Last 2 Weeks

Now
99 °F

Sunny.


Feels Like: 95 °F
Forecast: 59 / 105 °F
Wind: No wind

Location: Mather Field

Current Time: Jul 23, 2016 at 4:10:43 PM

Latest Report: Jul 23, 2016 at 2:50 PM


Visibility: 10 mi

Pressure: 29.86 "Hg

Humidity: 17%

Dew Point: 46 °F

Location of Arden-ArcadeLocation

Past Weather in Arden-Arcade — Graph

°F

Arden-Arcade Temperature Yesterday

Maximum temperature yesterday: 95 °F (at 5:48 PM)
Minimum temperature yesterday: 54 °F (at 3:55 AM)
Average temperature yesterday: 77 °F

High & Low Weather Summary for the Past Weeks

 TemperatureHumidityPressure
High100 °F (Jul 14, 2:45 PM)94% (Jul 9, 4:45 AM)30.09 "Hg (Jul 9, 4:45 AM)
Low50 °F (Jul 10, 5:45 AM)8% (Jul 13, 5:50 PM)29.77 "Hg (Jul 16, 4:45 PM)
Average75 °F45%29.94 "Hg
* Reported Jul 8 1:45 PM — Jul 23 1:45 PM, Arden-Arcade, Weather by CustomWeather, © 2016

Note: Actual official high and low records may vary slightly from our data, if they occured in-between our weather recording intervals... More about our weather records

Advertising

Arden-Arcade Weather History for the Previous 24 Hours

Scroll right to see more
 ConditionsComfort  
Time TempWeatherWind HumidityBarometerVisibility
1:45 PM
Sat, Jul 23
97 °FSunny.7 mph14%29.88 "Hg10 mi
12:46 PM93 °FExtremely hot.7 mph19%29.90 "HgN/A
11:50 AM90 °FSunny.7 mph21%29.92 "Hg10 mi
10:45 AM84 °FSunny.6 mph25%29.94 "Hg10 mi
9:45 AM81 °FSunny.5 mph30%29.95 "Hg10 mi
8:50 AM75 °FSunny.No wind34%29.95 "Hg10 mi
7:45 AM68 °FSunny.No wind46%29.95 "Hg10 mi
6:45 AM59 °FClear.No wind63%29.94 "Hg10 mi
5:45 AM57 °FClear.No wind63%29.94 "Hg10 mi
4:55 AM59 °FClear.5 mph59%29.92 "Hg10 mi
3:45 AM55 °FClear.3 mph72%29.93 "Hg10 mi
9:45 PM
Fri, Jul 22
75 °FMild.7 mph39%29.96 "Hg10 mi
8:45 PM82 °FSunny.9 mph30%29.95 "Hg10 mi
7:50 PM93 °FSunny.No wind13%29.95 "Hg10 mi
6:50 PM93 °FSunny.No wind12%29.95 "Hg10 mi
5:48 PM95 °FSunny.7 mph11%29.97 "Hg10 mi
Weather by CustomWeather, © 2016

See weather overviewHow to use our weather pages